GW5208 Weather Reports


Display with metric or nautical units.
time (UTC)temp
F
wind
direction
speed
MPH
gust
MPH
rain 1hr
in
rain 24hr
in
rain mn
in
humidity
%
barometer
mb
20260903133034 50 209 0.0 0.0 0.00 0.00 0.00 67 1008.3
20260903131514 49 207 0.0 0.0 0.00 0.00 0.00 68 1007.9
20260903130019 48 275 0.0 0.0 0.00 0.00 0.00 69 1007.7
20260903124526 48 207 0.0 0.0 0.00 0.00 0.00 69 1007.4
20260903123020 48 210 0.0 0.0 0.00 0.00 0.00 69 1007.2
20260903121520 49 205 0.0 0.0 0.00 0.00 0.00 68 1007.2
20260903120020 50 246 0.0 0.0 0.00 0.00 0.00 67 1007.3
20260903114531 51 264 0.0 0.0 0.00 0.00 0.00 65 1007.4
20260903113028 52 200 0.0 0.0 0.00 0.00 0.00 64 1007.5
20260903111510 51 207 0.0 0.0 0.00 0.00 0.00 64 1007.7
20260903110016 50 221 0.0 0.0 0.00 0.00 0.00 67 1007.7
20260903104523 50 198 0.0 0.0 0.00 0.00 0.00 65 1007.7
20260903103030 51 248 0.0 0.0 0.00 0.00 0.00 63 1007.5
20260903101534 52 221 0.0 0.0 0.00 0.00 0.00 62 1007.6
20260903100016 53 220 0.0 0.0 0.00 0.00 0.00 60 1007.3
20260903094523 53 217 0.0 0.0 0.00 0.00 0.00 60 1007.5
20260903093040 53 218 0.0 0.0 0.00 0.00 0.00 60 1007.2
20260903091531 52 217 0.0 0.0 0.00 0.00 0.00 61 1007.1
20260903090035 52 221 0.0 0.0 0.00 0.00 0.00 60 1007.0
20260903084518 51 231 0.0 0.0 0.00 0.00 0.00 61 1007.1
20260903083027 52 215 0.0 0.0 0.00 0.00 0.00 61 1006.7
20260903081539 52 261 0.0 0.0 0.00 0.00 0.00 61 1006.9
20260903080030 52 151 0.0 0.0 0.00 0.00 0.00 62 1007.0
20260903074534 53 141 0.0 0.0 0.00 0.00 0.00 60 1007.0
20260903073030 55 160 0.0 0.0 0.00 0.00 0.00 58 1006.9
20260903071505 56 202 0.0 0.0 0.00 0.00 0.00 56 1006.7
20260903070007 57 258 0.0 0.0 0.00 0.00 0.00 54 1006.6
20260903064511 57 243 0.0 0.0 0.00 0.00 0.00 56 1006.8
20260903063020 57 214 0.0 0.0 0.00 0.00 0.00 55 1007.0
20260903061527 57 232 0.0 0.0 0.00 0.00 0.00 55 1007.1
20260903060008 58 251 0.0 0.0 0.00 0.00 0.00 53 1007.2
20260903054513 59 252 0.0 0.0 0.00 0.00 0.00 52 1007.1
20260903053019 58 266 0.0 0.0 0.00 0.00 0.00 53 1007.2
20260903051527 58 257 0.0 0.0 0.00 0.00 0.00 54 1007.3
20260903050031 59 247 0.0 0.0 0.00 0.00 0.00 54 1007.6
20260903044510 58 220 0.0 0.0 0.00 0.00 0.00 57 1007.8
20260903043018 57 229 0.0 0.0 0.00 0.00 0.00 59 1008.3
20260903041521 57 259 0.0 0.0 0.00 0.00 0.00 60 1008.4
20260903040026 57 248 0.0 0.0 0.00 0.00 0.00 58 1008.2
20260903034534 56 208 0.0 0.0 0.00 0.00 0.00 60 1008.3
20260903033012 56 229 0.0 0.0 0.00 0.00 0.00 58 1008.0
20260903031529 56 213 0.0 0.0 0.00 0.00 0.00 57 1007.8
20260903030024 56 240 0.0 0.0 0.00 0.00 0.00 56 1007.6
20260903024529 56 266 0.0 0.0 0.00 0.00 0.00 58 1007.7
20260903023014 57 266 0.0 0.0 0.00 0.00 0.00 55 1007.7
20260903021534 58 252 0.0 0.0 0.00 0.00 0.00 54 1008.1
20260903020023 58 274 0.0 0.0 0.00 0.00 0.00 56 1008.0
20260903014533 60 259 0.0 0.0 0.00 0.00 0.00 55 1007.7
20260903013032 61 271 0.0 0.0 0.00 0.00 0.00 53 1008.2
20260903011512 61 244 0.0 0.0 0.00 0.00 0.00 54 1008.5
20260903010023 61 262 0.0 0.0 0.00 0.00 0.00 56 1008.0
20260903004532 62 290 0.0 0.0 0.00 0.00 0.00 56 1007.6
20260903003034 62 259 0.0 2.0 0.00 0.00 0.00 55 1006.2
20260903001534 63 262 0.0 5.0 0.00 0.00 0.00 53 1005.7
20260903000021 64 293 0.0 0.0 0.00 0.00 0.00 46 1005.8
20260902234525 65 255 3.0 15.0 0.00 0.00 0.00 45 1006.4
20260902233029 64 255 0.0 2.0 0.00 0.00 0.00 48 1006.8
20260902231550 65 203 0.0 0.0 0.00 0.00 0.00 48 1006.4
20260902230036 66 196 0.0 0.0 0.00 0.00 0.00 50 1005.6
20260902224525 66 203 0.0 2.0 0.00 0.00 0.00 50 1004.9
20260902223028 72 214 0.0 11.0 0.00 0.00 0.00 43 1003.8
20260902221508 83 158 0.0 0.0 0.00 0.00 0.00 28 1002.6
20260902220020 83 153 0.0 0.0 0.00 0.00 0.00 28 1003.2
20260902214520 83 262 0.0 0.0 0.00 0.00 0.00 27 1003.4
20260902213027 85 250 0.0 0.0 0.00 0.00 0.00 25 1003.7
20260902211508 85 170 0.0 0.0 0.00 0.00 0.00 25 1004.0
20260902210015 84 138 0.0 0.0 0.00 0.00 0.00 25 1004.3
20260902204518 83 162 0.0 0.0 0.00 0.00 0.00 26 1004.7
20260902203024 82 227 0.0 0.0 0.00 0.00 0.00 28 1005.0
20260902201509 81 188 0.0 0.0 0.00 0.00 0.00 29 1005.1
20260902200014 82 229 0.0 0.0 0.00 0.00 0.00 29 1005.3
20260902194524 82 252 0.0 0.0 0.00 0.00 0.00 30 1005.5
20260902193025 80 156 0.0 0.0 0.00 0.00 0.00 32 1005.5
20260902191529 78 172 0.0 0.0 0.00 0.00 0.00 32 1005.7
20260902190010 78 215 0.0 0.0 0.00 0.00 0.00 36 1005.9
20260902184516 76 210 0.0 0.0 0.00 0.00 0.00 38 1006.2
20260902183023 75 242 0.0 0.0 0.00 0.00 0.00 39 1006.5
20260902181528 75 246 0.0 0.0 0.00 0.00 0.00 40 1006.8
20260902180030 74 158 0.0 0.0 0.00 0.00 0.00 41 1006.9
20260902174511 73 217 0.0 0.0 0.00 0.00 0.00 41 1007.1
20260902173020 73 274 0.0 0.0 0.00 0.00 0.00 42 1007.2
20260902171525 72 237 0.0 0.0 0.00 0.00 0.00 43 1007.3
20260902170030 71 219 0.0 0.0 0.00 0.00 0.00 45 1007.2
20260902164536 70 240 0.0 0.0 0.00 0.00 0.00 47 1007.3
20260902163015 69 236 0.0 0.0 0.00 0.00 0.00 49 1007.2
20260902161530 69 216 0.0 0.0 0.00 0.00 0.00 49 1007.1
20260902160036 67 185 0.0 0.0 0.00 0.00 0.00 51 1007.3
20260902154531 66 269 0.0 0.0 0.00 0.00 0.00 54 1007.5
20260902153031 64 231 0.0 0.0 0.00 0.00 0.00 56 1007.7
20260902151523 63 194 0.0 0.0 0.00 0.00 0.00 56 1007.9
20260902150027 62 170 0.0 0.0 0.00 0.00 0.00 59 1008.0
20260902144532 60 170 0.0 0.0 0.00 0.00 0.00 60 1008.1
20260902143033 56 225 0.0 0.0 0.00 0.00 0.00 65 1008.3
20260902141520 55 329 0.0 0.0 0.00 0.00 0.00 65 1008.4
20260902140027 55 329 0.0 0.0 0.00 0.00 0.00 64 1008.5
20260902134533 55 329 0.0 0.0 0.00 0.00 0.00 65 1008.5